Regional Weather Roundup
Issued by NWS

Home | Current Version | Previous Version | Graphics & Text | Print | Product List | Glossary On
Versions: 1 2 3 4 5 6 7 8 9 10 11 12 13 14 15 16 17 18 19 20 21 22 23 24 25 26 27 28 29 30 31 32 33 34 35 36 37 38 39 40 41 42 43 44 45 46 47 48 49 50
000
ASUS43 KTOP 251959
RWRKS

WEATHER ROUNDUP FOR KANSAS
NATIONAL WEATHER SERVICE GOODLAND KS
300 PM CDT MON JUL 25 2016

NOTE:  "FAIR" INDICATES FEW OR NO CLOUDS BELOW 12,000 FEET WITH NO
SIGNIFICANT WEATHER AND/OR OBSTRUCTIONS TO VISIBILITY.

KSZ001>006-013>018-027>032-041>047-252100-
NORTHWEST KANSAS

CITY           SKY/WX    TMP DP  RH WIND       PRES   REMARKS
GOODLAND       PTSUNNY   81  63  54 S17       30.17F
HAYS           MOSUNNY   82  64  54 SE9       30.10F
HILL CITY      MOSUNNY   85  67  54 SE8       30.11F
RUSSELL        MOSUNNY   81  68  64 NE9       30.09F
$$

KSZ061>065-074>080-084>089-252100-
SOUTHWEST KANSAS

CITY           SKY/WX    TMP DP  RH WIND       PRES   REMARKS
DODGE CITY     MOSUNNY   84  67  56 NE9       30.12F
ELKHART          N/A     84  67  56 E13         N/A
GARDEN CITY    MOSUNNY   81  66  60 E10       30.13F
GREAT BEND     SUNNY     84  64  51 SE12G20   30.08F
LIBERAL        MOSUNNY   82  64  54 E6        30.14F
$$

KSZ066>073-081>083-090>101-252100-
SOUTHEAST KANSAS

CITY           SKY/WX    TMP DP  RH WIND       PRES   REMARKS
CHANUTE        CLOUDY    81  72  74 SE6       30.01S
COFFEYVILLE    CLOUDY    85  72  65 VRB7      29.98F
HUTCHINSON     CLOUDY    82  69  64 NE6       30.07F
NEWTON         PTSUNNY   77  71  82 VRB7      30.07F
PARSONS          N/A    N/A N/A N/A MISG      30.00F
WICHITA INTL   CLOUDY    85  69  58 NW5       30.04F
WICHITA JABRA  MOSUNNY   85  71  63 CALM      30.05F
WINFIELD       MOSUNNY   87  71  58 SE8       30.03F
$$

KSZ007>012-019>026-033>040-048>060-102>105-252100-
NORTHEAST KANSAS

CITY           SKY/WX    TMP DP  RH WIND       PRES   REMARKS
CONCORDIA      SUNNY     81  68  64 N3        30.09F
EMPORIA        CLOUDY    77  71  82 N9        30.06F
LAWRENCE       CLOUDY    81  72  74 NE12      30.01F
MANHATTAN      MOSUNNY   79  71  76 N7        30.06F
OLATHE IND     PTSUNNY   79  71  76 NE12      30.02F
OLATHE EXE     PTSUNNY   79  70  74 NE14      30.02F
SALINA         CLOUDY    85  69  58 N9        30.08F
TOPEKA BILLARD CLOUDY    80  71  74 VRB3      30.04R
TOPEKA FORBES  CLOUDY    82  72  71 N8        30.05R
$$



USA.gov is the U.S. government's official web portal to all federal, state and local government web resources and services.